SCOUT B DEB, 29279

Orbit data source: Space-Track

SCOUT B DEB, 29279 is space debris in LEO originally from a launch on Thu, 08 Aug 1968 UTC launched from the Air Force Western Test Range (AFWTR). Debris objects in space refer to the collection of defunct objects orbiting the Earth. Examples of debris include non-operational satellites, rocket bodies, and fragments generated from explosions, collisions, or faulty payload assembly.

Loading next visibility...
Identifier
29279, 1968-066N
Orbit
LEO
Last TLE update
8 months ago
Origin
Manufacturer
Unknown
Mission
Spacecraft
Bus & Motor
Unknown
Mass
Unknown
Launch date (UTC)
1968-08-08 (57 years ago)
Launch vehicle
Unknown
Launch site
Air Force Western Test Range (AFWTR)
Object type
Payload
Rocket body
Debris
Shape & HBR
Unknown
Radar Cross Section
Small (<0.1 m²)

Expand to show TLE details & history

TLE from 8 months ago
0 SCOUT B DEB
1 29279U 68066N   24292.39230666  .00010641  00000-0  53853-2 0  9997
2 29279  80.6012 160.1866 0554835  24.4627 338.1787 13.57417443198645
Epoch: 2024-10-18T09:24Z
TLE epoch observation values (Epoch: 2024-10-18T09:24:55.295Z)
Latitude
-0.00007°
Longitude
-8.4065°
Altitude
668.892 km
Speed
7.712 km/s
True Right ascension
10h 40m 44s
True Declination
0° 00' 00"
Sunlit
Object was in daylight at epoch
Visualization orbit readout
Latitude
78.91751°
Longitude
-133.17786°
Altitude
642.181 km
Speed
7.743 km/s
Apparent Right ascension
18h 41m 44s
Apparent Declination
33° 50' 34"
Sunlit
Object is in daylight
Visualization observer readout
Local Sidereal Time
05:43:43
Azimuth
347.562° N
Elevation
-15.033°
Doppler factor
1
Orbital elements
Apogee altitude
1,454.071 km
Perigee altitude
630.641 km
Semi-major axis
7,420.493 km
Eccentricity
0.05548
Inclination
80.6012°
RAAN
160.1866°
Arg. of periapsis
24.4627°
True anomaly
Unknown
Mean anomaly
338.1787°
Eccentric anomaly
Unknown
Mean motion
3.39542 °/min
Orbital period
106.03 mins
BSTAR
0.0053853
Loading maneuver chart data...
Loading SW <> Apogee altitude chart data...
Loading historical data...
Loading historical data...
Loading historical data...
Loading historical data...
Loading historical data...
Loading historical data...
Loading historical data...

SCOUT B DEB Visibility forecast

Observer location: undefined°, undefined°

Span
Click to sort rows by Start time (UTC) header in descending order
Start Az.
Max El. time (UTC)
Max El. Az.
Max El.
End time (UTC)
End Az.
9 mins2025-07-01 18:12:01.617Z339.846° N2025-07-01 18:16:01.617Z245.524° WSW41.165°2025-07-01 18:21:01.617Z183.369° SSW
6 mins2025-07-02 06:06:01.617Z138.873° SSE2025-07-02 06:09:01.617Z87.745° E25.995°2025-07-02 06:12:01.617Z40.371° NE
6 mins2025-07-02 07:53:01.617Z247.662° W2025-07-02 07:55:01.617Z278.979° WNW22.968°2025-07-02 07:59:01.617Z340.554° N
8 mins2025-07-02 17:06:01.617Z17.692° NNE2025-07-02 17:09:01.617Z71.63° E30.088°2025-07-02 17:14:01.617Z141.149° SSE
|